Voltar ao catálogo

FREGAT DEB

LostUNKNOWN
NORAD 46255·DEBRIS·🇷🇺 Russia

Lançado Jul 18, 2011 de Baikonur Cosmodrome

Loading…

Próximas Passagens (próximas 24 horas)

TLE

ObsoletoSource: Space-Track

Época: Oct 31, 2020, 21:29 UTC

1 46255U 11037KR  20305.89520910  .00012732  00000-0  16746+0 0  9996
2 46255  52.1528 133.5466 1922514 213.8214 132.3910  9.68429560  7049

Acompanhe FREGAT DEB em tempo real com AllMySat

Download on the App Store